El Centro, CA

4:21 AM PDT on April 27, 2017 (GMT -0700)
El Centro Naval Air Facility

Weather History for KNJK - December, 2012

Change the Weather History Date:

Monday, December 10, 2012

  Actual Average Record
Temperature  
Mean Temperature 56 °F -  
Max Temperature 70 °F 67 °F 78 °F (2014)
Min Temperature 42 °F 43 °F 33 °F (2013)
Degree Days  
Heating Degree Days 9    
Growing Degree Days 6 (Base 50)    
Moisture  
Dew Point 25 °F    
Average Humidity 32    
Maximum Humidity 55    
Minimum Humidity 16    
Precipitation  
Precipitation 0.00 in - - ()
Sea Level Pressure  
Sea Level Pressure 30.17 in    
Wind  
Wind Speed 5 mph (WSW)    
Max Wind Speed 9 mph    
Max Gust Speed -    
Visibility 10 miles    
Events      
Averages and records for this station are not official NWS values.
T = Trace of Precipitation, MM = Missing Value Source: NWS Daily Summary

Daily Weather History Graph

Daily Weather History Graph

Search for Another Location

Airport or City:

Trip Planner

Search our weather history database for the weather conditions in past years. The results will help you decide how hot, cold, wet, or windy it might be!

Date:

Astronomy

Dec. 10, 2012 Rise Set
Actual Time 6:34 AM PST 4:36 PM PST
Civil Twilight 6:07 AM PST 5:04 PM PST
Nautical Twilight 5:36 AM PST 5:34 PM PST
Astronomical Twilight 5:06 AM PST 6:04 PM PST
Moon 3:29 AM PST (12/10) 2:24 PM PST (12/10)
Length of Visible Light 10h 56m
Length of Day
10h 02m
Waning Crescent, 9% of the Moon is Illuminated
Dec 10
Waning Crescent
Dec 13
New
Dec 19
First Quarter
Dec 28
Full
Jan 4
Last Quarter

Hourly Weather History & Observations

Time (PST) Temp. Windchill Dew Point Humidity Pressure Visibility Wind Dir Wind Speed Gust Speed Precip Events Conditions
12:56 AM 48.9 °F - 30.0 °F 48% 30.22 in 10.0 mi WSW 3.5 mph - N/A   Clear
1:56 AM 55.9 °F - 25.0 °F 30% 30.22 in 10.0 mi NE 8.1 mph - N/A   Clear
2:56 AM 51.1 °F - 25.0 °F 36% 30.22 in 10.0 mi NNW 8.1 mph - N/A   Clear
3:56 AM 45.0 °F 41.2 °F 25.0 °F 46% 30.22 in 10.0 mi West 6.9 mph - N/A   Clear
4:56 AM 46.9 °F - 27.0 °F 46% 30.22 in 10.0 mi West 3.5 mph - N/A   Clear
5:56 AM 46.0 °F 43.9 °F 26.1 °F 46% 30.22 in 10.0 mi SSW 4.6 mph - N/A   Clear
6:56 AM 42.1 °F 39.2 °F 27.0 °F 55% 30.24 in 10.0 mi WSW 4.6 mph - N/A   Clear
7:56 AM 46.9 °F - 25.0 °F 42% 30.25 in 10.0 mi West 3.5 mph - N/A   Clear
8:56 AM 57.9 °F - 28.0 °F 32% 30.25 in 10.0 mi SSE 3.5 mph - N/A   Clear
9:56 AM 62.1 °F - 24.1 °F 23% 30.27 in 10.0 mi Variable 3.5 mph - N/A   Clear
10:56 AM 64.9 °F - 24.1 °F 21% 30.25 in 10.0 mi Calm Calm - N/A   Clear
11:56 AM 68.0 °F - 24.1 °F 19% 30.21 in 10.0 mi Calm Calm - N/A   Clear
12:56 PM 69.1 °F - 23.0 °F 18% 30.17 in 10.0 mi West 9.2 mph - N/A   Clear
1:56 PM 70.0 °F - 21.9 °F 16% 30.14 in 10.0 mi WSW 6.9 mph - N/A   Clear
2:56 PM 69.1 °F - 21.0 °F 16% 30.12 in 10.0 mi WSW 4.6 mph - N/A   Clear
3:56 PM 69.1 °F - 21.0 °F 16% 30.11 in 10.0 mi West 4.6 mph - N/A   Clear
4:56 PM 63.0 °F - 25.0 °F 24% 30.09 in 10.0 mi WSW 5.8 mph - N/A   Clear
5:56 PM 63.0 °F - 24.1 °F 23% 30.09 in 10.0 mi SW 4.6 mph - N/A   Clear
6:56 PM 54.0 °F - 25.0 °F 33% 30.10 in 10.0 mi Calm Calm - N/A   Clear
7:56 PM 57.9 °F - 23.0 °F 26% 30.09 in 10.0 mi Calm Calm - N/A   Clear
8:56 PM 52.0 °F - 24.1 °F 34% 30.09 in 10.0 mi SSW 4.6 mph - N/A   Clear
9:56 PM 50.0 °F - 25.0 °F 38% 30.09 in 10.0 mi SSW 3.5 mph - N/A   Clear
10:56 PM 46.0 °F 43.1 °F 21.0 °F 37% 30.09 in 10.0 mi WSW 5.8 mph - N/A   Clear
11:56 PM 48.0 °F - 24.1 °F 39% 30.09 in 10.0 mi West 5.8 mph - N/A   Clear